Starlink 32212

operational
NORAD ID: 60256 Int'l Des: 2024-131 Owner: SPXS Country: US Constellation: starlink
LEOCIRCULAR

About Starlink 32212

Description loading...

Live Position

Loading 3D Globe...

Upcoming Passes

Altitude History

Altitude vs Time

uPlot chart will show altitude changes over time

Two-Line Element Set

1 60256U 24131B 25257.98504681 -.00002782 00000-0 -81840-4 0 9998
2 60256 53.1602 148.8486 0001105 108.2242 251.8879 15.30205317 64819
Epoch: Sep 14, 2025 • Age: 27 hours

Current Status

Altitude 475.2 km
Velocity 7.63 km/s
Sub-Earth Point 5.75°N, 81.69°W
Launch Date Jul 27, 2024
Age 1.1 years
Type internet

Technical Details

Classification Payload
Mass 730.00 kg
Dry Mass 700.00 kg
Total Mass 730.00 kg
Length 0.30 m
Diameter 4.10 m
Span 29.00 m
Shape Box + pan
Manufacturer SPXS
Bus Type Starlink V2M
Phase Status In Orbit
Owner/State SPXS/US

Large Constellations

Loading constellations...